AirNav   Everest Fuels
 
 334 users online  

PN16 Pabst Blue Ribbon Airport
Evans City, Pennsylvania, USA

GOING TO EVANS CITY?


FAA INFORMATION EFFECTIVE 21 MAY 2020

Location

FAA Identifier: PN16
Lat/Long: 40-45-30.2350N 080-00-49.2150W
40-45.503917N 080-00.820250W
40.7583986,-80.0136708
(estimated)
Elevation: 1250 ft. / 381 m (estimated)
Variation: 08W (1985)
From city: 3 miles E of EVANS CITY, PA
Time zone: UTC -4 (UTC -5 during Standard Time)
Zip code: 16033

Airport Operations

Airport use: Private use. Permission required prior to landing
Control tower: no
ARTCC: CLEVELAND CENTER
FSS: ALTOONA FLIGHT SERVICE STATION
Attendance: 0700-DARK
Wind indicator: yes
Segmented circle: no

Airport Communications

WX AWOS-3PT at BTP (3 nm E): 121.450 (724-586-6434)
WX AWOS-3PT at PJC (7 nm W): 118.45 (724-452-5304)
WX AWOS-3PT at BVI (17 nm W): 118.35 (724-843-1024)
WX AWOS-A at 42PN (18 nm S): PHONE 412-442-2213
WX ASOS at PIT (19 nm SW): PHONE 412-472-0145

Nearby radio navigation aids

VOR radial/distance  VOR name  Freq  Var
EWCr122/9.8ELLWOOD CITY VOR/DME115.8008W
AGCr011/28.8ALLEGHENY VOR/DME110.0009W
CIPr233/34.3CLARION VOR/DME112.9006W
HLGr047/39.2WHEELING VOR/DME112.2007W

 
NDB name  Hdg/Dist  Freq  Var  ID
CASTLE140/24.227209WUCP ..- -.-. .--.

Airport Services

Airframe service: NONE
Powerplant service: NONE

Runway Information

Runway 9/27

Dimensions: 2500 x 100 ft. / 762 x 30 m
Surface: turf
RUNWAY 9  RUNWAY 27
Traffic pattern: leftleft

Airport Ownership and Management from official FAA records

Ownership: Privately-owned
Owner: CHARLES F PABST
RD 2
EVANS CITY, PA 16033
Phone 412-586-9295

Additional Remarks

FOR CD CTC PITTSBURGH APCH AT 412-472-5591

Instrument Procedures

There are no published instrument procedures at PN16.

Some nearby airports with instrument procedures:

KBTP - Pittsburgh/Butler Regional Airport (3 nm E)
KPJC - Zelienople Municipal Airport (7 nm W)
KBVI - Beaver County Airport (17 nm W)
KPIT - Pittsburgh International Airport (19 nm SW)
6P7 - McVille Airport (19 nm E)
 
Loc | Ops | Rwys | IFR | FBO | Links
Com | Nav | Svcs | Stats | Notes
Area around PN16 (Pabst Blue Ribbon Airport)
 
Road maps at: MapQuest Bing Google
 
Aerial photo
No photo
 
Sectional chart

 
Airport distance calculator
Flying to Pabst Blue Ribbon Airport? Find the distance to fly.

From to PN16

Sunrise and sunset
Times for 31-May-2020
 Local
(UTC-4)
 Zulu
(UTC)
Morning civil twilight05:1909:19
Sunrise05:5209:52
Sunset20:4400:44
Evening civil twilight21:1601:16

Current date and time
Zulu (UTC)  31-May-2020 09:18:43
Local (UTC-4)  31-May-2020 05:18:43
 
METAR
KBTP 
3nm E 
310856Z AUTO 00000KT 10SM OVC049 09/08 A3016 RMK AO2 SLP218 T00940078 53003
KBVI 
18nm W 
310856Z AUTO 34004KT 10SM OVC044 11/08 A3016 RMK AO2 T01080078
KPIT 
19nm SW 
310851Z 35004KT 10SM SCT040 BKN060 11/07 A3015 RMK AO2 SLP214 T01060072 53004
TAF
KBVI 
18nm W 
310528Z 3106/0106 00000KT P6SM SCT050 TEMPO 3106/3109 2SM HZ FM311500 33010KT P6SM SCT035 FM010100 35003KT P6SM SKC
KPIT 
19nm SW 
310528Z 3106/0112 33003KT P6SM SCT050 FM311500 34010KT P6SM SCT045 FM010300 35003KT P6SM SKC
NOTAMs
Click for the latest NOTAMs
NOTAMs are issued by the DoD/FAA and will open in a separate window not controlled by AirNav.

 

 
 

Would you like to see your business listed on this page?

 If your business provides an interesting product or service to pilots, flight crews, aircraft, or users of the Pabst Blue Ribbon Airport, you should consider listing it here.  To start the listing process, click on the button below
 
Add a business
 

Other Pages about Pabst Blue Ribbon Airport

Update a link
 
Copyright © AirNav, LLC. All rights reserved. Privacy Policy  Contact